KE4PKT Weather Reports


time (UTC)temp
F
wind
direction
speed
knots
gust
knots
rain 1hr
in
rain 24hr
in
rain mn
in
humidity
%
barometer
mb
20260906064548 70 0 0.0 0.0 0.00 0.15 0.01 96 1012.6
20260906063100 71 0 0.0 0.0 0.00 0.15 0.01 96 1012.8
20260906061550 71 0 0.0 0.0 0.01 0.15 0.01 96 1013.0
20260906054607 71 0 0.0 0.0 0.01 0.15 0.01 96 1013.2
20260906053103 71 0 0.0 0.0 0.01 0.15 0.01 95 1013.2
20260906051725 72 0 0.0 0.0 0.00 0.14 0.00 95 1013.2
20260906051648 72 0 0.0 0.0 0.00 0.14 0.00 95 1013.2
20260906050047 72 0 0.0 0.0 0.00 0.14 0.00 95 1013.4
20260906044542 72 0 0.0 0.0 0.00 0.14 0.00 94 1013.4
20260906043101 72 0 0.0 0.0 0.00 0.14 0.00 93 1013.2
20260906041547 72 0 0.0 0.0 0.00 0.14 0.00 93 1013.1
20260906040046 73 0 0.0 0.9 0.03 0.14 0.00 93 1012.7
20260906034555 73 0 0.0 3.5 0.03 0.14 0.14 92 1012.8
20260906033058 74 68 0.0 1.7 0.03 0.14 0.14 91 1013.0
20260906031544 75 0 0.0 4.3 0.03 0.14 0.14 90 1012.8
20260906030059 75 60 1.7 4.3 0.00 0.11 0.11 88 1013.0
20260906024553 75 0 0.0 0.0 0.00 0.11 0.11 88 1012.9
20260906023058 75 5 0.0 3.5 0.00 0.11 0.11 88 1012.4
20260906021603 75 0 0.0 0.0 0.00 0.11 0.11 88 1012.5
20260906020059 75 0 0.0 0.0 0.00 0.11 0.11 87 1012.8
20260906014550 75 0 0.0 0.0 0.00 0.11 0.11 87 1012.6
20260906013101 76 0 0.0 0.0 0.00 0.11 0.11 85 1012.4
20260906011602 76 0 0.0 0.0 0.00 0.11 0.11 84 1012.0
20260906010140 77 0 0.0 0.0 0.00 0.11 0.11 83 1012.1
20260906004555 78 0 0.0 0.0 0.00 0.11 0.11 80 1012.0
20260906003050 79 0 0.0 0.0 0.00 0.11 0.11 79 1011.9
20260906001600 80 0 0.0 0.0 0.00 0.11 0.11 77 1011.9
20260906000100 80 0 0.0 0.0 0.00 0.11 0.11 76 1011.9
20260905234544 81 0 0.0 0.9 0.00 0.11 0.11 75 1012.2
20260905233049 82 0 0.0 3.5 0.00 0.11 0.11 73 1012.3
20260905231624 83 0 0.9 4.3 0.00 0.11 0.11 72 1012.4
20260905230114 84 26 2.6 9.6 0.00 0.11 0.11 70 1012.7
20260905224548 85 32 6.1 16.5 0.00 0.11 0.11 67 1012.5
20260905223117 89 50 5.2 12.2 0.00 0.11 0.11 58 1012.0
20260905221544 92 342 2.6 7.8 0.00 0.11 0.11 55 1011.9
20260905220106 93 0 1.7 6.1 0.00 0.11 0.11 55 1012.0
20260905214549 93 338 1.7 7.8 0.00 0.11 0.11 54 1012.0
20260905213043 93 287 2.6 9.6 0.00 0.11 0.11 52 1011.7
20260905211549 93 273 2.6 7.0 0.00 0.11 0.11 53 1011.9
20260905210125 93 0 3.5 8.7 0.00 0.11 0.11 54 1011.9
20260905204547 93 227 0.9 6.1 0.00 0.11 0.11 55 1012.0
20260905203052 93 298 2.6 9.6 0.00 0.11 0.11 53 1011.9
20260905201549 93 284 5.2 7.8 0.00 0.11 0.11 53 1012.1
20260905200135 93 0 1.7 8.7 0.00 0.11 0.11 56 1012.3
20260905194549 93 0 1.7 6.1 0.00 0.11 0.11 53 1012.7
20260905193133 93 271 5.2 9.6 0.00 0.11 0.11 55 1012.9
20260905191549 92 275 6.1 10.4 0.00 0.11 0.11 54 1013.1
20260905190048 93 232 1.7 7.0 0.00 0.11 0.11 55 1013.1
20260905184611 92 216 1.7 6.1 0.00 0.11 0.11 56 1013.4
20260905183050 92 209 0.9 7.0 0.00 0.11 0.11 56 1013.5
20260905181637 91 256 2.6 6.1 0.00 0.11 0.11 59 1013.7
20260905180043 91 244 0.9 6.1 0.00 0.11 0.11 60 1013.8
20260905174550 90 173 0.9 6.1 0.00 0.11 0.11 62 1014.0
20260905173121 89 0 0.9 6.1 0.00 0.11 0.11 60 1014.2
20260905171556 88 0 0.9 4.3 0.00 0.11 0.11 60 1014.4
20260905170049 87 217 0.0 4.3 0.00 0.11 0.11 61 1014.3
20260905164607 86 159 0.9 6.1 0.00 0.11 0.11 66 1014.4
20260905163125 85 180 0.9 7.0 0.00 0.11 0.11 65 1014.3
20260905161642 84 200 1.7 5.2 0.00 0.11 0.11 70 1014.4
20260905160052 83 210 1.7 6.1 0.00 0.11 0.11 70 1014.6
20260905154606 82 184 1.7 8.7 0.00 0.11 0.11 75 1014.7
20260905153047 81 196 2.6 7.0 0.00 0.11 0.11 76 1015.0
20260905151553 79 101 1.7 6.1 0.00 0.11 0.11 78 1015.2
20260905150050 78 123 0.9 3.5 0.00 0.11 0.11 82 1015.3
20260905144549 76 0 1.7 5.2 0.00 0.11 0.11 86 1015.3
20260905143103 73 0 0.0 4.3 0.00 0.11 0.11 91 1015.6
20260905141558 71 0 0.0 1.7 0.00 0.11 0.11 94 1015.5
20260905140058 70 80 0.0 2.6 0.00 0.11 0.11 94 1015.6
20260905134548 69 0 0.0 2.6 0.00 0.11 0.11 95 1015.8
20260905133052 69 62 1.7 5.2 0.00 0.11 0.11 94 1016.0
20260905131558 69 65 3.5 7.8 0.03 0.11 0.11 94 1016.2
20260905130046 69 46 7.0 13.9 0.04 0.11 0.11 94 1016.5
20260905124555 69 76 4.3 15.6 0.04 0.11 0.11 93 1017.2
20260905123113 71 26 9.6 22.6 0.10 0.10 0.10 91 1017.5
20260905121547 74 334 10.4 18.2 0.08 0.08 0.08 91 1017.0
20260905120052 74 307 1.7 7.0 0.07 0.07 0.07 91 1015.8
20260905114550 75 270 7.8 13.9 0.07 0.07 0.07 92 1015.0
20260905113112 75 302 6.1 14.8 0.00 0.00 0.00 93 1015.0
20260905111554 73 289 8.7 20.9 0.00 0.00 0.00 97 1014.9
20260905110049 71 0 0.0 0.0 0.00 0.00 0.00 97 1014.0
20260905104548 71 0 0.0 0.0 0.00 0.00 0.00 97 1013.8
20260905103057 71 0 0.0 0.0 0.00 0.00 0.00 97 1013.5
20260905101558 71 0 0.0 0.0 0.00 0.00 0.00 97 1013.7
20260905100057 71 0 0.0 0.0 0.00 0.00 0.00 97 1013.8
20260905094549 71 0 0.0 0.0 0.00 0.00 0.00 97 1013.6
20260905093047 71 0 0.0 0.0 0.00 0.00 0.00 97 1013.8
20260905091555 72 0 0.0 0.0 0.00 0.00 0.00 96 1013.8
20260905090048 72 0 0.0 0.0 0.00 0.00 0.00 97 1013.7
20260905084608 72 0 0.0 0.0 0.00 0.00 0.00 97 1013.7
20260905083049 72 0 0.0 0.0 0.00 0.00 0.00 97 1013.4
20260905081549 72 0 0.0 0.0 0.00 0.00 0.00 96 1013.2
20260905080144 72 0 0.0 0.0 0.00 0.00 0.00 96 1013.2
20260905074550 72 0 0.0 0.0 0.00 0.00 0.00 96 1013.4
20260905073053 72 0 0.0 0.0 0.00 0.00 0.00 96 1013.4
20260905071550 72 0 0.0 0.0 0.00 0.00 0.00 96 1013.8
20260905070054 72 0 0.0 0.0 0.00 0.00 0.00 95 1014.0